Location: Baia Mare
(47.6567°N, 23.5850°E)
Time: 19:13:28
(UTC+03:00)

Envisat - Pass Details

Date: 28 January 2022
Orbit: 764 x 765 km, 98.2° (Epoch: 19 May)

Event Time Altitude Azimuth Distance (km) Brightness Sun altitude
Rises 06:41:06 0° 3° (N) 3,242 6.1 -12.9°
Reaches altitude 10° 06:43:47 10° 350° (N) 2,312 5.3 -12.5°
Maximum altitude 06:47:47 24° 298° (WNW) 1,554 4.0 -11.8°
Drops below altitude 10° 06:51:45 10° 246° (WSW) 2,301 5.0 -11.2°
Sets 06:54:26 0° 233° (SW) 3,223 5.9 -10.8°
